Location: Camerons Lookout
(40.9833°S, 175.9333°E)
Time: 20:36:16
(UTC+00:00)

Cosmos 1980 Rocket - Pass Details

Date: 14 January 2026
Orbit: 829 x 848 km, 71.0° (Epoch: 13 February)

Event Time Altitude Azimuth Distance (km) Brightness Sun altitude
Exits shadow 11:43:34 63° 297° (WNW) 951 2.3 -27.0°
Maximum altitude 11:44:21 73° 245° (WSW) 897 2.3 -27.0°
Drops below altitude 10° 11:50:06 10° 160° (SSE) 2,503 5.4 -27.2°
Sets 11:52:36 0° 158° (SSE) 3,446 6.3 -27.3°
